GW2918 Weather Reports


Display with metric or nautical units.
time (UTC)temp
F
wind
direction
speed
MPH
gust
MPH
rain 1hr
in
rain 24hr
in
rain mn
in
humidity
%
barometer
mb
20260505075902 59 189 7.0 8.0 0.00 0.00 0.00 67 1008.6
20260505074857 59 169 3.0 9.0 0.00 0.00 0.00 66 1008.1
20260505073857 59 145 4.0 10.0 0.00 0.00 0.00 65 1008.4
20260505072852 59 143 2.0 8.0 0.00 0.00 0.00 66 1008.5
20260505071850 59 178 2.0 8.0 0.00 0.00 0.00 65 1008.4
20260505070850 59 159 4.0 9.0 0.00 0.00 0.00 65 1008.3
20260505065848 58 192 4.0 7.0 0.00 0.00 0.00 65 1008.5
20260505064847 58 176 3.0 7.0 0.00 0.00 0.00 65 1008.3
20260505063843 59 180 4.0 7.0 0.00 0.00 0.00 64 1008.5
20260505062841 59 199 3.0 5.0 0.00 0.00 0.00 64 1008.4
20260505061841 59 146 2.0 9.0 0.00 0.00 0.00 63 1008.6
20260505060841 59 172 3.0 8.0 0.00 0.00 0.00 62 1008.5
20260505055840 59 169 4.0 8.0 0.00 0.00 0.00 62 1008.8
20260505054839 59 188 5.0 8.0 0.00 0.00 0.00 61 1009.0
20260505053835 59 187 5.0 13.0 0.00 0.00 0.00 61 1008.9
20260505052834 59 152 5.0 13.0 0.00 0.00 0.00 61 1008.9
20260505051834 59 168 5.0 10.0 0.00 0.00 0.00 61 1008.7
20260505050829 59 166 4.0 12.0 0.00 0.00 0.00 60 1008.9
20260505040821 59 197 7.0 9.0 0.00 0.00 0.00 60 1008.6
20260505035821 59 154 4.0 12.0 0.00 0.00 0.00 59 1008.5
20260505034820 59 195 5.0 7.0 0.00 0.00 0.00 59 1008.4
20260505033820 60 149 7.0 8.0 0.00 0.00 0.00 58 1008.3
20260505032815 60 178 3.0 10.0 0.00 0.00 0.00 58 1008.3
20260505031813 61 181 3.0 13.0 0.00 0.00 0.00 57 1008.4
20260505030813 61 205 3.0 12.0 0.00 0.00 0.00 56 1008.5
20260505025810 61 176 7.0 11.0 0.00 0.00 0.00 56 1008.3
20260505024806 61 176 7.0 11.0 0.00 0.00 0.00 55 1008.5
20260505023806 62 187 6.0 14.0 0.00 0.00 0.00 55 1008.5
20260505022806 61 198 9.0 12.0 0.00 0.00 0.00 55 1008.8
20260505021806 61 155 2.0 17.0 0.00 0.00 0.00 55 1008.4
20260505020804 61 155 4.0 9.0 0.00 0.00 0.00 56 1008.5
20260505015803 61 180 7.0 11.0 0.00 0.00 0.00 55 1008.4
20260505014803 61 189 6.0 12.0 0.00 0.00 0.00 55 1008.5
20260505013802 62 176 4.0 13.0 0.00 0.00 0.00 55 1008.4
20260505012758 62 188 6.0 15.0 0.00 0.00 0.00 55 1008.5
20260505011757 62 186 6.0 8.0 0.00 0.00 0.00 54 1008.5
20260505010756 62 166 5.0 10.0 0.00 0.00 0.00 53 1008.4
20260505005754 62 152 4.0 11.0 0.00 0.00 0.00 52 1007.9
20260505004754 62 186 6.0 13.0 0.00 0.00 0.00 51 1008.0
20260505003754 63 164 4.0 16.0 0.00 0.00 0.00 50 1007.9
20260505002753 64 192 4.0 18.0 0.00 0.00 0.00 49 1007.8
20260505001748 64 188 6.0 19.0 0.00 0.00 0.00 49 1007.7
20260505000748 64 161 4.0 12.0 0.00 0.00 0.00 49 1007.5
20260504235748 64 191 4.0 16.0 0.00 0.00 0.00 49 1007.5
20260504234748 64 159 5.0 15.0 0.00 0.00 0.00 48 1007.6
20260504233747 64 167 6.0 13.0 0.00 0.00 0.00 48 1007.3
20260504232746 65 200 6.0 15.0 0.00 0.00 0.00 47 1007.4
20260504231745 65 172 5.0 13.0 0.00 0.00 0.00 46 1007.5
20260504230744 66 142 8.0 9.0 0.00 0.00 0.00 46 1007.4
20260504225741 66 163 4.0 15.0 0.00 0.00 0.00 46 1007.4
20260504224740 67 160 3.0 9.0 0.00 0.00 0.00 46 1007.1
20260504223739 67 184 7.0 17.0 0.00 0.00 0.00 44 1007.2
20260504222738 67 191 8.0 11.0 0.00 0.00 0.00 45 1007.0
20260504221738 67 192 6.0 14.0 0.00 0.00 0.00 45 1007.1
20260504220737 68 182 5.0 6.0 0.00 0.00 0.00 45 1007.1
20260504215737 67 157 3.0 14.0 0.00 0.00 0.00 45 1007.3
20260504214735 68 183 4.0 10.0 0.00 0.00 0.00 44 1007.3
20260504213735 68 201 6.0 13.0 0.00 0.00 0.00 43 1007.2
20260504212734 68 173 4.0 14.0 0.00 0.00 0.00 43 1007.3
20260504211734 67 173 4.0 14.0 0.00 0.00 0.00 43 1007.3
20260504210734 67 197 4.0 11.0 0.00 0.00 0.00 44 1007.5
20260504205733 68 162 6.0 7.0 0.00 0.00 0.00 44 1007.4
20260504204729 67 190 8.0 13.0 0.00 0.00 0.00 45 1007.6
20260504203726 65 174 4.0 16.0 0.00 0.00 0.00 46 1007.7
20260504202723 66 215 11.0 15.0 0.00 0.00 0.00 46 1008.1
20260504201723 66 164 3.0 16.0 0.00 0.00 0.00 47 1008.0
20260504200718 66 163 4.0 11.0 0.00 0.00 0.00 47 1008.3
20260504195716 67 214 9.0 12.0 0.00 0.00 0.00 45 1008.4
20260504194715 66 232 6.0 24.0 0.00 0.00 0.00 46 1008.6
20260504193714 66 207 13.0 19.0 0.00 0.00 0.00 44 1008.7
20260504192710 65 187 2.0 16.0 0.00 0.00 0.00 46 1008.6
20260504191706 68 205 4.0 13.0 0.00 0.00 0.00 43 1008.8
20260504190703 66 204 8.0 13.0 0.00 0.00 0.00 47 1009.0
20260504185702 65 206 11.0 14.0 0.00 0.00 0.00 47 1009.0
20260504184701 65 139 13.0 18.0 0.00 0.00 0.00 48 1008.9
20260504183659 66 208 3.0 16.0 0.00 0.00 0.00 47 1009.0
20260504182654 66 187 3.0 13.0 0.00 0.00 0.00 47 1009.1
20260504181649 66 233 10.0 18.0 0.00 0.00 0.00 44 1009.2
20260504180645 68 175 6.0 7.0 0.00 0.00 0.00 43 1009.4
20260504175640 64 206 13.0 16.0 0.00 0.00 0.00 46 1009.3
20260504174635 63 152 9.0 15.0 0.00 0.00 0.00 46 1009.4
20260504173634 65 198 5.0 17.0 0.00 0.00 0.00 51 1009.7
20260504172634 64 203 7.0 12.0 0.00 0.00 0.00 45 1009.8
20260504171633 64 305 6.0 13.0 0.00 0.00 0.00 48 1009.6
20260504170632 64 195 3.0 16.0 0.00 0.00 0.00 52 1009.9
20260504150612 58 199 9.0 19.0 0.00 0.00 0.00 50 1011.1
20260504140603 54 230 10.0 17.0 0.00 0.00 0.00 51 1011.3
20260504130550 53 184 10.0 12.0 0.00 0.00 0.00 52 1011.7
20260504110531 46 192 5.0 12.0 0.00 0.00 0.00 59 1011.8
20260504100516 44 202 2.0 4.0 0.00 0.00 0.00 62 1011.8
20260504081454 43 88 2.0 3.0 0.00 0.00 0.00 64 1011.9
20260504080452 43 88 3.0 3.0 0.00 0.00 0.00 64 1012.0